Location: Arrodets-la-Barthe
(43.0306°N, 0.2829°E)
Time: 02:12:47
(UTC+00:00)

DUCHIFAT 1 - Pass Details

Date: 03 April 2023
Orbit: 567 x 581 km, 98.1° (Epoch: 29 May)

Event Time Altitude Azimuth Distance (km) Brightness Sun altitude
Rises 03:13:22 0° 13° (NNE) 2,789 ? -25.3°
Reaches altitude 10° 03:15:31 10° 15° (NNE) 1,884 ? -25.0°
Enters shadow 03:19:19 75° 45° (NE) 594 ? -24.4°
